Fairbanks Eiels, AK

5:35 PM AKST on December 15, 2019 (GMT -0900)
Eielson Air Force Base

Weather History for PAEI - October, 2019

Change the Weather History Date:

Friday, October 4, 2019

  Actual Average Record
Temperature  
Mean Temperature 34 °F -  
Max Temperature 41 °F 39 °F 61 °F (2018)
Min Temperature 28 °F 24 °F -7 °F (1972)
Degree Days  
Heating Degree Days 30    
Moisture  
Dew Point 33 °F    
Average Humidity 90    
Maximum Humidity 94    
Minimum Humidity 84    
Precipitation  
Precipitation 0.03 in - - ()
Sea Level Pressure  
Sea Level Pressure 29.69 in    
Wind  
Wind Speed 3 mph (SSE)    
Max Wind Speed 16 mph    
Max Gust Speed 26 mph    
Visibility 8 miles    
Events Fog , Rain , Snow    
Averages and records for this station are not official NWS values.
T = Trace of Precipitation, MM = Missing Value Source: NWS Daily Summary

Daily Weather History Graph

Daily Weather History Graph

Search for Another Location

Airport or City:

Astronomy

Oct. 04, 2019 Rise Set
Actual Time 8:06 AM AKDT 7:05 PM AKDT
Civil Twilight 7:18 AM AKDT 7:54 PM AKDT
Nautical Twilight 6:21 AM AKDT 8:50 PM AKDT
Astronomical Twilight 5:20 AM AKDT 9:51 PM AKDT
Moon 5:21 PM AKDT (10/4) 9:09 PM AKDT (10/4)
Length of Visible Light 12h 36m
Length of Day
10h 59m
Waxing Crescent, 41% of the Moon is Illuminated
Oct 4
Waxing Crescent
Oct 5
First Quarter
Oct 13
Full
Oct 21
Last Quarter
Oct 27
New

Hourly Weather History & Observations

Time (AKDT) Temp. Windchill Dew Point Humidity Pressure Visibility Wind Dir Wind Speed Gust Speed Precip Events Conditions
12:56 AM 30.2 °F - 28.4 °F 93% 29.91 in 10.0 mi Calm Calm - N/A   Clear
1:11 AM 30.2 °F - 28.4 °F 93% 29.91 in 5.0 mi Calm Calm - N/A   Clear
1:16 AM 30.2 °F - 28.4 °F 93% 29.90 in 10.0 mi Calm Calm - N/A Fog Patches of Fog
1:56 AM 29.5 °F - 27.7 °F 93% 29.89 in 0.2 mi Calm Calm - N/A Fog Light Freezing Fog
2:56 AM 28.6 °F - 26.8 °F 93% 29.86 in 0.2 mi Calm Calm - N/A Fog Light Freezing Fog
3:56 AM 29.5 °F - 27.7 °F 93% 29.82 in 0.2 mi Calm Calm - N/A Fog Light Freezing Fog
4:56 AM 28.0 °F - 26.2 °F 93% 29.79 in 8.0 mi Calm Calm - N/A Fog Partly Cloudy
5:56 AM 30.0 °F 25.2 °F 28.2 °F 93% 29.77 in 10.0 mi NE 4.6 mph - N/A   Overcast
6:56 AM 30.9 °F - 29.3 °F 94% 29.73 in 10.0 mi Calm Calm - N/A   Mostly Cloudy
7:56 AM 32.5 °F - 30.9 °F 94% 29.70 in 10.0 mi Calm Calm - N/A   Overcast
8:26 AM 33.8 °F - 32.0 °F 93% 29.69 in 10.0 mi Calm Calm - N/A   Light Drizzle
8:58 AM 32.5 °F - 30.7 °F 93% 29.68 in 10.0 mi Calm Calm - N/A   Overcast
9:43 AM 33.8 °F 28.6 °F 32.0 °F 93% 29.67 in 10.0 mi East 5.8 mph - N/A Rain Light Rain
9:53 AM 33.8 °F 29.6 °F 32.0 °F 93% 29.66 in 10.0 mi East 4.6 mph - N/A   Overcast
9:56 AM 33.6 °F 30.6 °F 31.8 °F 93% 29.66 in 10.0 mi East 3.5 mph - 0.00 in   Overcast
10:11 AM 33.8 °F - 32.0 °F 93% 29.65 in 10.0 mi Calm Calm - N/A   Overcast
10:56 AM 34.9 °F - 32.5 °F 91% 29.64 in 10.0 mi Calm Calm - N/A   Overcast
11:56 AM 38.8 °F 34.6 °F 34.3 °F 84% 29.61 in 10.0 mi WNW 5.8 mph - N/A   Overcast
12:25 PM 37.4 °F - 35.6 °F 93% 29.61 in 10.0 mi Calm Calm - N/A Rain Light Rain
12:43 PM 37.4 °F 32.8 °F 35.6 °F 93% 29.62 in 10.0 mi SW 5.8 mph - N/A   Overcast
12:45 PM 37.4 °F 32.1 °F 35.6 °F 93% 29.62 in 10.0 mi SSW 6.9 mph - N/A Rain Light Rain
12:56 PM 39.2 °F 35.9 °F 34.7 °F 84% 29.61 in 10.0 mi South 4.6 mph - 0.00 in Rain Light Rain
1:56 PM 40.3 °F 36.3 °F 36.1 °F 85% 29.61 in 10.0 mi South 5.8 mph - 0.01 in Rain Light Rain
2:26 PM 39.2 °F 35.0 °F 37.4 °F 93% 29.62 in 6.0 mi South 5.8 mph - N/A Rain Light Rain
2:56 PM 39.7 °F 35.6 °F 36.7 °F 89% 29.61 in 10.0 mi East 5.8 mph - N/A Rain Light Rain
3:56 PM 40.3 °F 35.5 °F 37.6 °F 90% 29.60 in 5.0 mi ESE 6.9 mph - 0.00 in Rain Light Rain
4:56 PM 40.5 °F 35.1 °F 38.1 °F 91% 29.60 in 10.0 mi East 8.1 mph - 0.00 in   Overcast
5:08 PM 41.0 °F 34.3 °F 37.4 °F 87% 29.57 in 10.0 mi ESE 11.5 mph - N/A   Overcast
5:14 PM 41.0 °F 38.0 °F 37.4 °F 87% 29.61 in 6.0 mi SSE 4.6 mph - N/A Rain Light Rain
5:56 PM 41.0 °F 34.3 °F 37.4 °F 87% 29.58 in 10.0 mi SE 11.5 mph - N/A   Overcast
5:57 PM 40.5 °F 34.6 °F 36.9 °F 87% 29.61 in 10.0 mi SSE 9.2 mph - 0.01 in   Overcast
6:22 PM 41.0 °F 32.8 °F 37.4 °F 87% 29.63 in 5.0 mi SW 16.1 mph 26.5 mph N/A Rain Light Rain
6:56 PM 39.0 °F 30.6 °F 35.2 °F 86% 29.65 in 5.0 mi WSW 15.0 mph 21.9 mph 0.00 in Rain Light Rain
7:21 PM 37.4 °F 32.1 °F 35.6 °F 93% 29.66 in 10.0 mi SSW 6.9 mph - N/A   Overcast
7:56 PM 37.0 °F 32.4 °F 34.2 °F 89% 29.67 in 10.0 mi SSW 5.8 mph - 0.00 in   Mostly Cloudy
8:56 PM 36.5 °F - 32.7 °F 86% 29.69 in 10.0 mi Calm Calm - N/A   Mostly Cloudy
9:56 PM 36.0 °F - 32.2 °F 86% 29.70 in 10.0 mi Calm Calm - N/A   Mostly Cloudy
11:26 PM 35.6 °F - 32.0 °F 87% 29.71 in 10.0 mi Calm Calm - N/A   Mostly Cloudy
11:33 PM 35.6 °F 31.7 °F 32.0 °F 87% 29.72 in 8.0 mi West 4.6 mph - N/A Rain , Snow Light Rain
11:56 PM 35.6 °F 29.9 °F 32.4 °F 88% 29.72 in 8.0 mi WSW 6.9 mph - 0.01 in Rain , Snow Light Rain